www.pogodaiklimat.ru

Погода и климат >> Архив погоды >> Беларусь >> Новогрудок


ПОГОДА в Новогрудке

  • Прогноз погоды в Новогрудке
  • Монитор погоды в Новогрудке
  • Климат города

АРХИВ ПОГОДЫ в Новогрудке

Время (UTC), дата Ветер
(напр.,м/с)
 
Видим.   Явления Облачность Т
(С)
Тd
(С)
f
(%)
Тe
(С)
Тes
(С)
Комфортность P
(гПа)
Po
(гПа)
Тmin
(С)
Tmax
(С)
R
(мм)
R24
(мм)
S
(см)
03 13.02 ЮВ 2 8000 м слабый снег 10/9 360 м
[Frnb As op]
-3.4 -4.5 92 -8 -8 1016.9 981.8 -3.8 13
06 13.02 Ю 1 3500 м слабый снег 10/9 240 м
[Frnb As op]
-2.2 -2.8 96 -5 -5 1017.7 982.8 -3.8 1 13
09 13.02 Ю 1 3700 м слабый снег 10/9 240 м
[Frnb As op]
-1.8 -2.3 96 -4 -4 1018.5 983.7
12 13.02 Ю 1 4500 м слабый снег 10/9 240 м
[Frnb As op]
-0.6 -2.1 90 -3 -3 1018.5 983.8
15 13.02 ЮВ 1 3800 м слабый снег 10/9 240 м
[Frnb As op]
-1.1 -1.5 97 -3 -3 1018.7 983.9
18 13.02 В 1 3600 м слабый снег 10/9 210 м
[Frnb As op]
-2.5 -3.1 96 -5 -5 1019.3 984.4 -0.5 1 13
21 13.02 В 1 3800 м слабый снег 10/9 240 м
[Frnb As op]
-2.3 -2.9 96 -5 -5 1019.9 984.9
00 14.02 В 2 3800 м слабый снег 10/9 240 м
[Frnb As op]
-4.1 -4.6 96 -8 -8 1020.3 985.0
03 14.02 В 2 9000 м дымка 3 балла -7.6 -9.0 90 -12 -12 1021.0 984.8 -7.7 13
06 14.02 В 2 8000 м дымка {снег} 9/0
[Ac As]
-8.5 -9.6 92 -13 -13 1021.8 986.0 -8.8 0.7 13
09 14.02 В 2 8000 м дымка 10/0
[Ac As]
-5.7 -7.1 90 -10 -9 1022.7 987.3
12 14.02 В 3 8000 м дымка 10/0
[Ac As]
-6.1 -7.2 92 -12 -11 1023.7 988.0
15 14.02 В 3 10 км 9/9 600 м
[Sc]
-6.0 -7.5 89 -12 -12 1024.5 988.8
18 14.02 В 1 10 км 9/9 630 м
[Sc]
-7.4 -8.7 90 -10 -10 1025.8 990.0 -5.5 13
21 14.02 В 1 9000 м дымка 10/10 300 м
[St]
-7.2 -8.5 90 -10 -10 1026.7 990.8
00 15.02 В 2 9000 м дымка 10/10 300 м
[St]
-7.3 -8.6 90 -12 -12 1027.0 991.1
03 15.02 ЮВ 2 9000 м дымка 10/0
[Cs]
-9.3 -10.5 91 -14 -14 1027.4 991.2 -9.4 13
06 15.02 В 1 8000 м дымка 9/0
[Ac As]
-9.8 -11.0 91 -12 -12 1028.1 991.8 -9.9 13
09 15.02 ЮВ 1 9000 м дымка 8/0
[Ac trans]
-5.8 -6.9 92 -8 -6 1028.6 992.9
12 15.02 В 2 9000 м дымка 9/6 600 м
[Sc Ac trans]
-6.0 -7.5 89 -10 -10 1028.6 992.8
15 15.02 ЮВ 3 8000 м дымка 9/9 540 м
[Sc]
-6.2 -7.4 91 -12 -12 1028.3 992.5
18 15.02 ЮВ 3 8000 м дымка 9/9 600 м
[Sc]
-7.3 -9.0 88 -13 -13 1028.3 992.4 -5.8 12
21 15.02 ЮВ 3 8000 м дымка 9/9 540 м
[Sc]
-7.1 -8.8 88 -13 -13 1027.9 992.0
00 16.02 Ю 3 7000 м дымка 9/9 540 м
[Sc]
-6.1 -7.6 89 -12 -12 1026.9 991.1
03 16.02 ЮВ 3 5000 м слабый снег 10/9 240 м
[Frnb As op]
-6.3 -7.5 91 -12 -12 1025.8 990.1 -7.4 12
06 16.02 ЮВ 3 4200 м слабый снег 10/9 240 м
[Frnb As op]
-5.7 -6.8 92 -11 -11 1024.6 989.1 -7.4 0.3 12
09 16.02 Ю 4 4300 м дымка {снег} 10/10 240 м
[St]
-4.3 -5.2 93 -11 -11 1023.7 988.3
12 16.02 Ю 4 7000 м дымка {снег} 10/10 270 м
[St]
-2.7 -4.6 87 -9 -9 1022.4 987.4
15 16.02 ЮВ 4 7000 м дымка 9/9 540 м
[Sc]
-2.1 -3.9 87 -8 -8 1021.4 986.4
18 16.02 Ю 3 6000 м слабый снег 10/9 270 м
[Frnb As op]
-2.8 -4.1 91 -8 -8 1021.5 986.5 -2.1 0.3 12
21 16.02 ЮЗ 3 5000 м слабый снег 10/9 240 м
[Frnb As op]
-3.1 -4.5 90 -8 -8 1021.8 986.6
00 17.02 З 4 5000 м слабый снег 10/9 240 м
[Frnb As op]
-2.6 -3.2 96 -9 -9 1021.3 986.3
03 17.02 ЮЗ 4 4500 м дымка {снег} 10/10 210 м
[St]
-1.0 -1.7 95 -7 -7 1021.1 986.2 -3.4 13
06 17.02 Ю 3 6000 м дымка {снег} 10/6 300 м
[St As op]
-0.9 -1.9 93 -6 -6 1020.2 985.4 -3.4 1 13
09 17.02 ЮЗ 5 6000 м дымка {снег} 10/6 300 м
[St As op]
-0.9 -1.9 93 -7 -7 1018.6 983.9
12 17.02 ЮЗ 6
{10}
6000 м слабый снег 10/8 270 м
[Frnb As op]
0.0 -1.2 92 -7 -7 1017.5 983.0
15 17.02 З 5
{11}
10 км {снег} 9/8 420 м
[Sc As trans]
+0.5 -1.5 86 -5 -5 1018.0 983.5
18 17.02 З 3 10 км {снег} 9/6 600 м
[Sc Ac trans]
-0.9 -3.1 85 -6 -6 1019.0 984.3 +1.0 0.3 11
21 17.02 З 3 10 км 10/0
[Ac As]
-2.3 -5.2 80 -7 -7 1019.8 984.8
00 18.02 З 3 10 км 10/0
[Ac As]
-2.9 -5.6 82 -8 -8 1020.5 985.3
03 18.02 ЮЗ 4 10 км 10/0
[Ac As]
-4.0 -6.2 85 -10 -10 1020.9 985.6 -4.1 11
06 18.02 З 3 10 км слабый снег 10/9 270 м
[Frnb As op]
-4.7 -6.4 88 -10 -10 1021.5 986.2 -4.8 0.2 11
09 18.02 З 4 8000 м слабый снег 10/9 240 м
[Frnb As op]
-3.8 -6.0 85 -10 -10 1021.8 986.6
12 18.02 З 3 10 км в посл. час снег 10/10 270 м
[St]
-3.5 -6.0 83 -9 -9 1023.0 987.7
15 18.02 СЗ 3 10 км слабый снег 10/9 240 м
[Frnb As op]
-3.9 -6.5 82 -9 -9 1023.7 988.3
18 18.02 СЗ 4 9000 м слабый снег {метель} 10/9 240 м
[Frnb As op]
-4.9 -7.7 81 -11 -11 1025.1 989.6 -3.5 0.5
21 18.02 З 2 3200 м снег {метель} 10/9 210 м
[Frnb As op]
-5.5 -7.6 85 -10 -10 1025.2 989.7
00 19.02 З 6
{10}
3000 м 10 баллов -5.1 -6.1 93 -13 -13 1024.0 988.0
03 19.02 З 5
{10}
2500 м 10 баллов -4.7 -5.2 96 -12 -12 1024.0 988.1 -5.6 13
06 19.02 ЮЗ 4 5000 м 10 баллов -4.8 -5.3 96 -11 -11 1024.0 988.1 -5.6 3 14
09 19.02 З 3 5000 м 10 баллов -3.5 -4.3 94 -9 -9 1024.0 988.2
12 19.02 ЮЗ 3 4500 м 10 баллов -1.8 -2.6 94 -7 -7 1024.0 988.5
15 19.02 З 2 7000 м дымка 10 баллов -1.6 -2.4 94 -6 -6 1024.0 988.5
18 19.02 З 2 7000 м дымка 10 баллов -2.4 -4.0 89 -6 -6 1024.0 988.4 -1.6 0.6 14
21 19.02 З 2 7000 м дымка 10 баллов -2.6 -3.9 91 -7 -7 1024.0 988.3

 

Местоположение метеостанции Новогрудок (Гродненская область, Беларусь): широта 53.60 долгота 25.85 высота над уровнем моря 280 м.

В архиве по умолчанию представлена погода в Новогрудке за последнюю неделю. Архивные данные за месяц целиком и за предыдущие месяцы, начиная с января 2011 года, Вы можете получить, выбрав интересующий диапазон дат из раскрывающегося списка и нажав кнопку "Ввод!".

Внимание! Время в таблицах - всемирное. Для получения местного времени необходимо прибавить поправку, которая в Новогрудке равна 3 ч.

Смотрите также архив погоды в соседних городах и на ближайших метеорологических станциях:

Погода в Лиде (Гродненская область, Беларусь) (48 км)
Погода в Барановичах (Брестская область, Беларусь) (53 км)
Погода в Столбцах (Минская область, Беларусь) (60 км)
Погода в Воложине (Минская область, Беларусь) (70 км)
Погода в Ошмянах (Гродненская область, Беларусь) (92 км)
Погода в Ганцевичах (Брестская область, Беларусь) (102 км)
Погода в Волковыске (Гродненская область, Беларусь) (104 км)
Погода в Ивацевичах (Брестская область, Беларусь) (105 км)
Погода в Varena (Литва) (112 км)
Погода в Гродно (Гродненская область, Беларусь) (119 км)

Пояснения к столбцам:

Ветер - указаны скорость ветра в м/с - средняя за 10 мин, порывы в срок и между сроками (в фигурных скобках) и направление, откуда дует ветер: С - северный, СВ - северо-восточный, В - восточный, ЮВ - юго-восточный, Ю - южный, ЮЗ - юго-западный, З - западный, СЗ - северо-западный.
Видимость - горизонтальная дальность видимости в метрах или километрах. При видимости от 1 до 10 км при отсутствии осадков обычно наблюдается дымка, при ухудшении видимости до 1 км и менее - туман. В сухую погоду видимость может ухудшаться дымом, пылью или мглою.
Явления - указаны атмосферные явления, наблюдавшиеся в срок или в последний час перед сроком; фигурными скобками обозначены явления, наблюдавшиеся между сроками (за 1-3 часа до срока); квадратными скобками обозначены град или гололедные отложения с указанием их диаметра в мм.
Облачность - указаны через наклонную черту общая и нижняя облачность в баллах и высота нижней границы облаков в метрах; квадратными скобками обозначены формы облаков: Ci - перистые, Cs - перисто-слоистые, Cc - перисто-кучевые, Ac - высококучевые, As - высокослоистые, Sc - слоисто-кучевые, Ns - слоисто-дождевые, Cu - кучевые, Cb - кучево-дождевые. Подробнее классификацию облаков см. в Атласе облаков (PDF).
T - Температура воздуха - температура, измеренная на высоте 2 м над землей.
Td - Температура точки росы - температура, при понижении до которой содержащийся в воздухе водяной пар достигнет насыщения.
f - Относительная влажность воздуха - влажноcть воздуха, измеренная на высоте 2 м над землей.
Te - Эффективная температура - температура, которую ощущает одетый по сезону человек в тени. Характеристика душности погоды. При расчете учитывается влияние влажности воздуха и скорости ветра на теплоощущения человека.
Tes - Эффективная температура на солнце - температура, которую ощущает человек, с поправкой на солнечный нагрев. Характеристика знойности погоды. Зависит от высоты солнца над горизонтом, облачности и скорости ветра. Ночью, в пасмурную погоду, а также при ветре 12 м/с и более поправка равна нулю.
P - Атмосферное давление - приведенное к уровню моря атмосферное давление.
Po - Атмосферное давление - измеренное на уровне метеостанции атмосферное давление.
Tmin - Минимальная температура - минимум температуры воздуха на высоте 2 м над землей.
Tmax - Максимальная температура - максимум температуры воздуха на высоте 2 м над землей.
R - Количество осадков - Количество выпавших осадков за период времени, мм. При наведении курсора мыши на число - период времени, за который выпало указанное количество осадков.
R24 - Количество осадков - Количество выпавших осадков за 24 часа, мм.
S - Снежный покров - Высота снежного покрова, см. При наведении курсора мыши на число - состояние снежного покрова и степень покрытия местности в баллах.